Denver Centennial, CO

8:04 AM MST on January 22, 2018 (GMT -0700)
Centennial

Weather History for KAPA - April, 2014

Change the Weather History Date:

Monday, April 7, 2014

  Actual Average Record
Temperature  
Mean Temperature 42 °F -  
Max Temperature 51 °F 54 °F 75 °F (2017)
Min Temperature 33 °F 29 °F 21 °F (2007)
Degree Days  
Heating Degree Days 23    
Month to date heating degree days 177  
Moisture  
Dew Point 24 °F    
Average Humidity 57    
Maximum Humidity 89    
Minimum Humidity 24    
Precipitation  
Precipitation T in - - ()
Month to date precipitation 0.53  
Year to date precipitation 2.12  
Sea Level Pressure  
Sea Level Pressure 30.13 in    
Wind  
Wind Speed 9 mph (NW)    
Max Wind Speed 24 mph    
Max Gust Speed 33 mph    
Visibility 10 miles    
Events Snow    
Averages and records for this station are not official NWS values.
T = Trace of Precipitation, MM = Missing Value Source: NWS Daily Summary

Daily Weather History Graph

Daily Weather History Graph

Search for Another Location

Airport or City:

Trip Planner

Search our weather history database for the weather conditions in past years. The results will help you decide how hot, cold, wet, or windy it might be!

Date:

Astronomy

Apr. 07, 2014 Rise Set
Actual Time 6:34 AM MDT 7:29 PM MDT
Civil Twilight 6:06 AM MDT 7:56 PM MDT
Nautical Twilight 5:34 AM MDT 8:29 PM MDT
Astronomical Twilight 5:00 AM MDT 9:03 PM MDT
Moon 12:33 PM MDT (4/7) 2:07 AM MDT (4/7)
Length of Visible Light 13h 50m
Length of Day
12h 55m
First Quarter, 54% of the Moon is Illuminated
Apr 7
First Quarter
Apr 15
Full
Apr 22
Last Quarter
Apr 29
New
May 6
First Quarter

Hourly Weather History & Observations

Time (MDT) Temp. Windchill Dew Point Humidity Pressure Visibility Wind Dir Wind Speed Gust Speed Precip Events Conditions
12:53 AM 37.0 °F 33.3 °F 30.9 °F 79% 29.97 in 10.0 mi SSW 4.6 mph - 0.00 in   Overcast
1:53 AM 37.9 °F 32.1 °F 28.9 °F 70% 30.01 in 10.0 mi WNW 8.1 mph - 0.00 in   Overcast
2:53 AM 37.9 °F 34.4 °F 28.9 °F 70% 30.01 in 10.0 mi WNW 4.6 mph - N/A   Overcast
3:53 AM 37.9 °F 32.1 °F 26.1 °F 62% 30.02 in 10.0 mi NNW 8.1 mph - N/A   Overcast
4:53 AM 37.9 °F 30.0 °F 26.1 °F 62% 30.04 in 10.0 mi NNW 12.7 mph - N/A   Overcast
5:53 AM 37.0 °F 28.5 °F 27.0 °F 67% 30.07 in 10.0 mi North 13.8 mph - N/A   Overcast
6:27 AM 34.0 °F 23.8 °F 30.0 °F 85% 30.10 in 1.0 mi NW 16.1 mph - 0.00 in Snow Light Snow
6:53 AM 33.1 °F 26.9 °F 30.9 °F 92% 30.14 in 9.0 mi WNW 6.9 mph - 0.00 in   Mostly Cloudy
7:32 AM 34.0 °F 28.0 °F 30.0 °F 85% 30.13 in 10.0 mi WNW 6.9 mph - N/A   Mostly Cloudy
7:53 AM 35.1 °F 30.1 °F 30.9 °F 85% 30.17 in 10.0 mi WSW 5.8 mph - N/A   Mostly Cloudy
8:53 AM 37.9 °F 31.5 °F 28.0 °F 68% 30.17 in 10.0 mi NNW 9.2 mph - N/A   Overcast
9:53 AM 39.9 °F 31.4 °F 24.1 °F 53% 30.19 in 10.0 mi North 16.1 mph - N/A   Overcast
10:53 AM 41.0 °F 32.5 °F 23.0 °F 49% 30.20 in 10.0 mi North 17.3 mph 25.3 mph N/A   Overcast
11:39 AM 39.9 °F 31.4 °F 27.0 °F 60% 30.16 in 10.0 mi West 16.1 mph - N/A   Overcast
11:51 AM 41.0 °F 34.3 °F 28.4 °F 61% 30.16 in 10.0 mi West 11.5 mph - N/A   Overcast
11:53 AM 41.0 °F 33.9 °F 28.9 °F 62% 30.18 in 10.0 mi West 12.7 mph - N/A   Overcast
12:53 PM 44.1 °F 39.5 °F 24.1 °F 45% 30.15 in 10.0 mi WNW 8.1 mph 17.3 mph N/A   Overcast
2:53 PM 48.9 °F - 17.1 °F 28% 30.11 in 10.0 mi North 6.9 mph 26.5 mph N/A   Mostly Cloudy
3:53 PM 50.0 °F - 19.0 °F 29% 30.10 in 10.0 mi NNE 17.3 mph 24.2 mph N/A   Mostly Cloudy
4:53 PM 50.0 °F - 16.0 °F 26% 30.10 in 10.0 mi NNE 13.8 mph - N/A   Mostly Cloudy
5:53 PM 48.0 °F - 16.0 °F 28% 30.13 in 10.0 mi North 16.1 mph - N/A   Mostly Cloudy
6:53 PM 48.9 °F - 17.1 °F 28% 30.16 in 10.0 mi NNE 13.8 mph 19.6 mph N/A   Mostly Cloudy
7:53 PM 46.0 °F 41.4 °F 18.0 °F 33% 30.17 in 10.0 mi NW 9.2 mph - N/A   Scattered Clouds
8:53 PM 45.0 °F 40.1 °F 19.0 °F 36% 30.19 in 10.0 mi NW 9.2 mph - N/A   Scattered Clouds
9:53 PM 39.9 °F 35.1 °F 19.9 °F 45% 30.21 in 10.0 mi SSE 6.9 mph - N/A   Scattered Clouds
10:53 PM 37.9 °F 32.1 °F 19.9 °F 48% 30.23 in 10.0 mi SSE 8.1 mph - N/A   Scattered Clouds
11:53 PM 36.0 °F 30.3 °F 21.0 °F 55% 30.24 in 10.0 mi SSE 6.9 mph - N/A   Partly Cloudy